Skip Page Navigation
NASA JPL Caltech
NASA Logo - Jet Propulsion Laboratory + View the NASA Portal
+ Near-Earth Object (NEO) Program
Search JPL
JPL Home Earth Solar System Stars & Galaxies Technology
JPL Solar System Dynamics
BODIES ORBITS EPHEMERIDES TOOLS PHYSICAL DATA DISCOVERY FAQ SITE MAP
JPL Small-Body Database Browser
Search: [ help ]  
128297 Ashlevi (2003 XD11)
Classification: Main-belt Asteroid          SPK-ID: 2128297
Ephemeris | Orbit Diagram | Orbital Elements | Physical Parameters | Discovery Circumstances ]

[ show orbit diagram ]
Orbital Elements at Epoch 2457400.5 (2016-Jan-13.0) TDB
Reference: JPL 11 (heliocentric ecliptic J2000)
 Element Value Uncertainty (1-sigma)   Units 
e .07698653378698238 8.7714e-08  
a 2.865670726576588 3.2007e-08 au
q 2.645052670362633 2.5106e-07 au
i .9552754621911078 6.0211e-06 deg
node 279.8939011994521 0.00051988 deg
peri 114.4662003208009 0.00052186 deg
M 233.6227587631322 4.6425e-05 deg
tp 2458022.519826406907
(2017-Sep-26.01982641)
0.00023161 JED
period 1771.894490771339
4.85
2.9686e-05
8.128e-08
d
yr
n .2031723682617723 3.4039e-09 deg/d
Q 3.086288782790543 3.4471e-08 au
  Orbit Determination Parameters
   # obs. used (total)      302  
   data-arc span      5640 days (15.44 yr)  
   first obs. used      2000-03-03  
   last obs. used      2015-08-12  
   planetary ephem.      DE431  
   SB-pert. ephem.      SB431-BIG16  
   condition code      0  
   fit RMS      .59537  
   data source      ORB  
   producer      Otto Matic  
   solution date      2015-Sep-02 17:46:35  

Additional Information
 Earth MOID = 1.64998 au 
 Jupiter MOID = 2.26092 au 
 T_jup = 3.295 
[ show covariance matrix ]

Ephemeris | Orbit Diagram | Orbital Elements | Physical Parameters | Discovery Circumstances ]

Physical Parameter Table
Parameter Symbol Value Units Sigma Reference Notes
absolute magnitude H 15.8 mag n/a MPO296936  

128297 Ashlevi           Discovered 2003 Dec. 13 by J. Young at Table Mountain Observatory.
Ashlie Philpott (b. 1998) and Levi Lemley (b. 2000) are grandchildren of the discoverer.
NOTE: some special characters may not display properly (any characters within {} are an attempt to place the proper accent above a character)
Reference: 20080321/MPCPages.arcLast Updated: 2008-03-26

Alternate Designations
 2003 XD11 = 2005 ES168 
Ephemeris | Orbit Diagram | Orbital Elements | Physical Parameters | Discovery Circumstances ]
ABOUT SSD CREDITS/AWARDS PRIVACY/COPYRIGHT GLOSSARY LINKS
FirstGov 2016-Feb-07 01:22 UT
(server date/time)  
NASA Home Page
Site Manager:   Ryan S. Park
Webmaster  Alan B. Chamberlin